Time,TemperatureF,DewpointF,PressureIn,WindDirection,WindDirectionDegrees,WindSpeedMPH,WindSpeedGustMPH,Humidity,HourlyPrecipIn,Conditions,Clouds,dailyrainin,SolarRadiationWatts/m^2,SoftwareType,DateUTC
2013-03-02 00:00:00,35.0,24.4,29.73,East,88,0.0,1.0,65,0.00,,,0.00,0,HR-IXPWINDi_r2_v1.2.,2013-03-02 05:00:00,
2013-03-02 00:05:00,34.9,24.0,29.73,NNE,21,1.0,4.0,64,0.00,,,0.00,0,HR-IXPWINDi_r2_v1.2.,2013-03-02 05:05:00,
2013-03-02 00:10:00,34.9,24.3,29.73,NNE,23,0.0,6.0,65,0.00,,,0.00,0,HR-IXPWINDi_r2_v1.2.,2013-03-02 05:10:00,
2013-03-02 00:15:00,34.7,23.8,29.73,SE,137,2.0,6.0,64,0.00,,,0.00,0,HR-IXPWINDi_r2_v1.2.,2013-03-02 05:15:00,
2013-03-02 00:20:00,34.6,24.0,29.73,SE,131,0.0,6.0,65,0.00,,,0.00,0,HR-IXPWINDi_r2_v1.2.,2013-03-02 05:20:00,
2013-03-02 00:26:00,34.4,23.5,29.73,SE,131,1.0,3.0,64,0.00,,,0.00,0,HR-IXPWINDi_r2_v1.2.,2013-03-02 05:26:00,
2013-03-02 00:31:00,34.4,23.8,29.73,SE,130,0.0,2.0,65,0.00,,,0.00,0,HR-IXPWINDi_r2_v1.2.,2013-03-02 05:31:00,
2013-03-02 00:36:00,34.3,23.8,29.73,ESE,123,0.0,2.0,65,0.00,,,0.00,0,HR-IXPWINDi_r2_v1.2.,2013-03-02 05:36:00,
2013-03-02 00:41:00,34.1,23.6,29.73,SE,131,0.0,2.0,65,0.00,,,0.00,0,HR-IXPWINDi_r2_v1.2.,2013-03-02 05:41:00,
2013-03-02 00:46:00,34.3,23.8,29.73,SE,131,0.0,2.0,65,0.00,,,0.00,0,HR-IXPWINDi_r2_v1.2.,2013-03-02 05:46:00,
2013-03-02 00:52:00,34.1,23.6,29.73,NNE,28,1.0,2.0,65,0.00,,,0.00,0,HR-IXPWINDi_r2_v1.2.,2013-03-02 05:52:00,
2013-03-02 00:57:00,34.0,23.5,29.73,NNE,28,0.0,2.0,65,0.00,,,0.00,0,HR-IXPWINDi_r2_v1.2.,2013-03-02 05:57:00,
2013-03-02 01:02:00,33.8,23.3,29.73,NNE,28,0.0,2.0,65,0.00,,,0.00,0,HR-IXPWINDi_r2_v1.2.,2013-03-02 06:02:00,
2013-03-02 01:07:00,33.8,23.3,29.72,NNW,335,0.0,3.0,65,0.00,,,0.00,0,HR-IXPWINDi_r2_v1.2.,2013-03-02 06:07:00,
2013-03-02 01:12:00,33.7,23.2,29.72,NNW,328,0.0,6.0,65,0.00,,,0.00,0,HR-IXPWINDi_r2_v1.2.,2013-03-02 06:12:00,
2013-03-02 01:17:00,33.7,23.2,29.72,North,0,1.0,6.0,65,0.00,,,0.00,0,HR-IXPWINDi_r2_v1.2.,2013-03-02 06:17:00,
2013-03-02 01:23:00,33.5,22.6,29.73,North,0,0.0,3.0,64,0.00,,,0.00,0,HR-IXPWINDi_r2_v1.2.,2013-03-02 06:23:00,
2013-03-02 01:28:00,33.5,22.6,29.73,North,0,0.0,2.0,64,0.00,,,0.00,0,HR-IXPWINDi_r2_v1.2.,2013-03-02 06:28:00,
2013-03-02 01:33:00,33.4,22.9,29.73,ENE,61,3.0,4.0,65,0.00,,,0.00,0,HR-IXPWINDi_r2_v1.2.,2013-03-02 06:33:00,
2013-03-02 01:38:00,33.4,22.9,29.72,ENE,71,2.0,5.0,65,0.00,,,0.00,0,HR-IXPWINDi_r2_v1.2.,2013-03-02 06:38:00,
2013-03-02 01:43:00,33.2,22.7,29.72,ENE,68,0.0,5.0,65,0.00,,,0.00,0,HR-IXPWINDi_r2_v1.2.,2013-03-02 06:43:00,
2013-03-02 01:49:00,33.2,22.7,29.72,SE,126,0.0,6.0,65,0.00,,,0.00,0,HR-IXPWINDi_r2_v1.2.,2013-03-02 06:49:00,
2013-03-02 01:54:00,33.2,22.7,29.72,North,0,0.0,6.0,65,0.00,,,0.00,0,HR-IXPWINDi_r2_v1.2.,2013-03-02 06:54:00,
2013-03-02 01:59:00,33.1,22.6,29.72,North,0,0.0,6.0,65,0.00,,,0.00,0,HR-IXPWINDi_r2_v1.2.,2013-03-02 06:59:00,
2013-03-02 02:04:00,33.1,22.6,29.72,North,0,0.0,3.0,65,0.00,,,0.00,0,HR-IXPWINDi_r2_v1.2.,2013-03-02 07:04:00,
2013-03-02 02:09:00,33.1,22.6,29.72,North,0,0.0,3.0,65,0.00,,,0.00,0,HR-IXPWINDi_r2_v1.2.,2013-03-02 07:09:00,
2013-03-02 02:14:00,33.1,23.0,29.72,North,0,0.0,2.0,66,0.00,,,0.00,0,HR-IXPWINDi_r2_v1.2.,2013-03-02 07:14:00,
2013-03-02 02:20:00,33.1,23.0,29.72,North,0,0.0,1.0,66,0.00,,,0.00,0,HR-IXPWINDi_r2_v1.2.,2013-03-02 07:20:00,
2013-03-02 02:25:00,33.2,23.4,29.72,North,0,0.0,1.0,67,0.00,,,0.00,0,HR-IXPWINDi_r2_v1.2.,2013-03-02 07:25:00,
2013-03-02 02:30:00,33.1,23.0,29.72,North,0,0.0,1.0,66,0.00,,,0.00,0,HR-IXPWINDi_r2_v1.2.,2013-03-02 07:30:00,
2013-03-02 02:35:00,33.1,23.0,29.72,North,0,0.0,1.0,66,0.00,,,0.00,0,HR-IXPWINDi_r2_v1.2.,2013-03-02 07:35:00,
2013-03-02 02:40:00,33.1,23.0,29.72,North,0,0.0,1.0,66,0.00,,,0.00,0,HR-IXPWINDi_r2_v1.2.,2013-03-02 07:40:00,
2013-03-02 02:46:00,32.9,22.4,29.72,North,10,0.0,3.0,65,0.00,,,0.00,0,HR-IXPWINDi_r2_v1.2.,2013-03-02 07:46:00,
2013-03-02 02:51:00,32.9,22.8,29.72,North,10,0.0,3.0,66,0.00,,,0.00,0,HR-IXPWINDi_r2_v1.2.,2013-03-02 07:51:00,
2013-03-02 02:56:00,32.9,22.4,29.72,North,0,0.0,2.0,65,0.00,,,0.00,0,HR-IXPWINDi_r2_v1.2.,2013-03-02 07:56:00,
2013-03-02 03:01:00,32.9,22.8,29.72,North,0,0.0,2.0,66,0.00,,,0.00,0,HR-IXPWINDi_r2_v1.2.,2013-03-02 08:01:00,
2013-03-02 03:07:00,33.1,23.0,29.72,WSW,257,0.0,5.0,66,0.00,,,0.00,0,HR-IXPWINDi_r2_v1.2.,2013-03-02 08:07:00,
2013-03-02 03:12:00,32.9,22.4,29.72,ESE,104,1.0,5.0,65,0.00,,,0.00,0,HR-IXPWINDi_r2_v1.2.,2013-03-02 08:12:00,
2013-03-02 03:17:00,32.9,22.4,29.72,ESE,104,0.0,4.0,65,0.00,,,0.00,0,HR-IXPWINDi_r2_v1.2.,2013-03-02 08:17:00,
2013-03-02 03:22:00,33.1,22.6,29.72,East,93,0.0,2.0,65,0.00,,,0.00,0,HR-IXPWINDi_r2_v1.2.,2013-03-02 08:22:00,
2013-03-02 03:27:00,32.9,22.4,29.72,East,93,0.0,2.0,65,0.00,,,0.00,0,HR-IXPWINDi_r2_v1.2.,2013-03-02 08:27:00,
2013-03-02 03:33:00,33.2,22.7,29.72,SE,126,0.0,2.0,65,0.00,,,0.00,0,HR-IXPWINDi_r2_v1.2.,2013-03-02 08:33:00,
2013-03-02 03:38:00,33.2,22.7,29.72,SE,126,0.0,2.0,65,0.00,,,0.00,0,HR-IXPWINDi_r2_v1.2.,2013-03-02 08:38:00,
2013-03-02 03:43:00,33.1,22.6,29.72,SE,126,2.0,2.0,65,0.00,,,0.00,0,HR-IXPWINDi_r2_v1.2.,2013-03-02 08:43:00,
2013-03-02 03:48:00,32.9,22.8,29.72,North,357,2.0,5.0,66,0.00,,,0.00,0,HR-IXPWINDi_r2_v1.2.,2013-03-02 08:48:00,
2013-03-02 03:53:00,32.9,22.4,29.72,North,0,0.0,5.0,65,0.00,,,0.00,0,HR-IXPWINDi_r2_v1.2.,2013-03-02 08:53:00,
2013-03-02 03:58:00,32.9,22.4,29.72,North,0,0.0,4.0,65,0.00,,,0.00,0,HR-IXPWINDi_r2_v1.2.,2013-03-02 08:58:00,
2013-03-02 04:04:00,32.9,22.8,29.72,NW,306,0.0,3.0,66,0.00,,,0.00,0,HR-IXPWINDi_r2_v1.2.,2013-03-02 09:04:00,
2013-03-02 04:09:00,32.8,22.3,29.72,NW,306,1.0,3.0,65,0.00,,,0.00,0,HR-IXPWINDi_r2_v1.2.,2013-03-02 09:09:00,
2013-03-02 04:14:00,32.8,22.3,29.72,NW,308,1.0,2.0,65,0.00,,,0.00,0,HR-IXPWINDi_r2_v1.2.,2013-03-02 09:14:00,
2013-03-02 04:19:00,32.8,23.0,29.72,NW,308,0.0,2.0,67,0.00,,,0.00,0,HR-IXPWINDi_r2_v1.2.,2013-03-02 09:19:00,
2013-03-02 04:24:00,32.8,23.0,29.73,NW,306,0.0,1.0,67,0.00,,,0.00,0,HR-IXPWINDi_r2_v1.2.,2013-03-02 09:24:00,
2013-03-02 04:30:00,32.9,23.1,29.73,NW,308,0.0,0.0,67,0.00,,,0.00,0,HR-IXPWINDi_r2_v1.2.,2013-03-02 09:30:00,
2013-03-02 04:35:00,32.8,22.7,29.73,NNW,347,0.0,3.0,66,0.00,,,0.00,0,HR-IXPWINDi_r2_v1.2.,2013-03-02 09:35:00,
2013-03-02 04:40:00,32.8,22.7,29.72,North,349,0.0,3.0,66,0.00,,,0.00,0,HR-IXPWINDi_r2_v1.2.,2013-03-02 09:40:00,
2013-03-02 04:45:00,32.8,22.7,29.72,NNW,347,0.0,2.0,66,0.00,,,0.00,0,HR-IXPWINDi_r2_v1.2.,2013-03-02 09:45:00,
2013-03-02 04:50:00,32.8,23.0,29.72,NNW,347,1.0,2.0,67,0.00,,,0.00,0,HR-IXPWINDi_r2_v1.2.,2013-03-02 09:50:00,
2013-03-02 04:56:00,32.8,22.7,29.72,NNW,347,0.0,2.0,66,0.00,,,0.00,0,HR-IXPWINDi_r2_v1.2.,2013-03-02 09:56:00,
2013-03-02 05:01:00,32.7,22.6,29.72,NNW,347,0.0,2.0,66,0.00,,,0.00,0,HR-IXPWINDi_r2_v1.2.,2013-03-02 10:01:00,
2013-03-02 05:06:00,32.7,23.0,29.72,NNW,347,0.0,2.0,67,0.00,,,0.00,0,HR-IXPWINDi_r2_v1.2.,2013-03-02 10:06:00,
2013-03-02 05:11:00,32.7,23.0,29.72,NNW,347,0.0,3.0,67,0.00,,,0.00,0,HR-IXPWINDi_r2_v1.2.,2013-03-02 10:11:00,
2013-03-02 05:16:00,32.7,22.6,29.72,NNW,347,0.0,3.0,66,0.00,,,0.00,0,HR-IXPWINDi_r2_v1.2.,2013-03-02 10:16:00,
2013-03-02 05:21:00,32.7,23.0,29.72,NNW,347,0.0,0.0,67,0.00,,,0.00,0,HR-IXPWINDi_r2_v1.2.,2013-03-02 10:21:00,
2013-03-02 05:27:00,32.5,22.4,29.72,NNW,347,0.0,2.0,66,0.00,,,0.00,0,HR-IXPWINDi_r2_v1.2.,2013-03-02 10:27:00,
2013-03-02 05:32:00,32.5,22.4,29.72,North,349,0.0,2.0,66,0.00,,,0.00,0,HR-IXPWINDi_r2_v1.2.,2013-03-02 10:32:00,
2013-03-02 05:37:00,32.5,22.8,29.72,North,349,0.0,2.0,67,0.00,,,0.00,0,HR-IXPWINDi_r2_v1.2.,2013-03-02 10:37:00,
2013-03-02 05:42:00,32.4,22.3,29.72,North,349,0.0,1.0,66,0.00,,,0.00,0,HR-IXPWINDi_r2_v1.2.,2013-03-02 10:42:00,
2013-03-02 05:47:00,32.5,22.8,29.72,NNW,347,0.0,1.0,67,0.00,,,0.00,0,HR-IXPWINDi_r2_v1.2.,2013-03-02 10:47:00,
2013-03-02 05:52:00,32.4,22.3,29.72,North,349,0.0,0.0,66,0.00,,,0.00,0,HR-IXPWINDi_r2_v1.2.,2013-03-02 10:52:00,
2013-03-02 05:58:00,32.4,22.3,29.72,North,354,0.0,2.0,66,0.00,,,0.00,0,HR-IXPWINDi_r2_v1.2.,2013-03-02 10:58:00,
2013-03-02 06:03:00,32.4,22.3,29.72,North,354,0.0,2.0,66,0.00,,,0.00,0,HR-IXPWINDi_r2_v1.2.,2013-03-02 11:03:00,
2013-03-02 06:08:00,32.4,22.0,29.72,North,354,0.0,4.0,65,0.00,,,0.00,0,HR-IXPWINDi_r2_v1.2.,2013-03-02 11:08:00,
2013-03-02 06:13:00,32.4,22.0,29.72,North,354,1.0,4.0,65,0.00,,,0.00,0,HR-IXPWINDi_r2_v1.2.,2013-03-02 11:13:00,
2013-03-02 06:18:00,32.4,22.0,29.72,North,354,2.0,3.0,65,0.00,,,0.00,0,HR-IXPWINDi_r2_v1.2.,2013-03-02 11:18:00,
2013-03-02 06:23:00,32.4,22.3,29.72,North,359,3.0,3.0,66,0.00,,,0.00,0,HR-IXPWINDi_r2_v1.2.,2013-03-02 11:23:00,
2013-03-02 06:28:00,32.4,22.3,29.72,North,352,0.0,3.0,66,0.00,,,0.00,0,HR-IXPWINDi_r2_v1.2.,2013-03-02 11:28:00,
2013-03-02 06:33:00,32.2,22.1,29.72,North,352,0.0,3.0,66,0.00,,,0.00,0,HR-IXPWINDi_r2_v1.2.,2013-03-02 11:33:00,
2013-03-02 06:38:00,32.2,22.1,29.72,North,357,0.0,2.0,66,0.00,,,0.00,0,HR-IXPWINDi_r2_v1.2.,2013-03-02 11:38:00,
2013-03-02 06:43:00,32.2,21.8,29.72,North,357,0.0,2.0,65,0.00,,,0.00,0,HR-IXPWINDi_r2_v1.2.,2013-03-02 11:43:00,
2013-03-02 06:49:00,32.2,21.8,29.72,North,357,0.0,1.0,65,0.00,,,0.00,5,HR-IXPWINDi_r2_v1.2.,2013-03-02 11:49:00,
2013-03-02 06:54:00,32.4,22.0,29.73,North,357,0.0,0.0,65,0.00,,,0.00,9,HR-IXPWINDi_r2_v1.2.,2013-03-02 11:54:00,
2013-03-02 06:59:00,32.4,22.0,29.73,North,357,0.0,0.0,65,0.00,,,0.00,12,HR-IXPWINDi_r2_v1.2.,2013-03-02 11:59:00,
2013-03-02 07:04:00,32.4,22.0,29.73,North,357,0.0,1.0,65,0.00,,,0.00,18,HR-IXPWINDi_r2_v1.2.,2013-03-02 12:04:00,
2013-03-02 07:09:00,32.4,22.3,29.73,North,357,1.0,1.0,66,0.00,,,0.00,19,HR-IXPWINDi_r2_v1.2.,2013-03-02 12:09:00,
2013-03-02 07:15:00,32.4,22.0,29.73,North,357,0.0,1.0,65,0.00,,,0.00,25,HR-IXPWINDi_r2_v1.2.,2013-03-02 12:15:00,
2013-03-02 07:20:00,32.5,22.4,29.73,North,357,0.0,1.0,66,0.00,,,0.00,21,HR-IXPWINDi_r2_v1.2.,2013-03-02 12:20:00,
2013-03-02 07:25:00,32.8,22.3,29.73,North,357,1.0,2.0,65,0.00,,,0.00,19,HR-IXPWINDi_r2_v1.2.,2013-03-02 12:25:00,
2013-03-02 07:30:00,32.9,22.4,29.73,North,357,0.0,2.0,65,0.00,,,0.00,51,HR-IXPWINDi_r2_v1.2.,2013-03-02 12:30:00,
2013-03-02 07:35:00,33.1,22.2,29.73,North,357,0.0,3.0,64,0.00,,,0.00,23,HR-IXPWINDi_r2_v1.2.,2013-03-02 12:35:00,
2013-03-02 07:41:00,33.2,22.0,29.73,North,357,0.0,3.0,63,0.00,,,0.00,26,HR-IXPWINDi_r2_v1.2.,2013-03-02 12:41:00,
2013-03-02 07:46:00,33.5,22.3,29.73,North,0,0.0,4.0,63,0.00,,,0.00,44,HR-IXPWINDi_r2_v1.2.,2013-03-02 12:46:00,
2013-03-02 07:51:00,33.5,21.9,29.73,NNW,339,3.0,5.0,62,0.00,,,0.00,33,HR-IXPWINDi_r2_v1.2.,2013-03-02 12:51:00,
2013-03-02 07:56:00,33.5,21.9,29.73,North,4,0.0,5.0,62,0.00,,,0.00,33,HR-IXPWINDi_r2_v1.2.,2013-03-02 12:56:00,
2013-03-02 08:01:00,33.8,22.2,29.73,North,4,0.0,5.0,62,0.00,,,0.00,48,HR-IXPWINDi_r2_v1.2.,2013-03-02 13:01:00,
2013-03-02 08:07:00,33.8,21.8,29.72,NE,44,2.0,6.0,61,0.00,,,0.00,65,HR-IXPWINDi_r2_v1.2.,2013-03-02 13:07:00,
2013-03-02 08:12:00,34.3,22.6,29.72,NNW,335,1.0,6.0,62,0.00,,,0.00,49,HR-IXPWINDi_r2_v1.2.,2013-03-02 13:12:00,
2013-03-02 08:17:00,34.4,22.0,29.72,North,356,2.0,7.0,60,0.00,,,0.00,51,HR-IXPWINDi_r2_v1.2.,2013-03-02 13:17:00,
2013-03-02 08:22:00,34.6,22.1,29.73,ENE,75,2.0,7.0,60,0.00,,,0.00,35,HR-IXPWINDi_r2_v1.2.,2013-03-02 13:22:00,
2013-03-02 08:27:00,34.6,21.7,29.73,NNE,20,0.0,6.0,59,0.00,,,0.00,56,HR-IXPWINDi_r2_v1.2.,2013-03-02 13:27:00,
2013-03-02 08:33:00,35.0,22.1,29.73,NNE,30,1.0,5.0,59,0.00,,,0.00,58,HR-IXPWINDi_r2_v1.2.,2013-03-02 13:33:00,
2013-03-02 08:38:00,35.0,22.1,29.72,ESE,106,3.0,8.0,59,0.00,,,0.00,106,HR-IXPWINDi_r2_v1.2.,2013-03-02 13:38:00,
2013-03-02 08:43:00,35.0,22.1,29.72,East,85,3.0,8.0,59,0.00,,,0.00,106,HR-IXPWINDi_r2_v1.2.,2013-03-02 13:43:00,
2013-03-02 08:48:00,35.0,22.1,29.72,East,79,1.0,4.0,59,0.00,,,0.00,118,HR-IXPWINDi_r2_v1.2.,2013-03-02 13:48:00,
2013-03-02 08:54:00,35.2,21.9,29.73,NE,42,1.0,5.0,58,0.00,,,0.00,150,HR-IXPWINDi_r2_v1.2.,2013-03-02 13:54:00,
2013-03-02 08:59:00,35.0,21.7,29.73,ENE,59,1.0,5.0,58,0.00,,,0.00,139,HR-IXPWINDi_r2_v1.2.,2013-03-02 13:59:00,
2013-03-02 09:04:00,34.9,21.6,29.73,ENE,61,1.0,6.0,58,0.00,,,0.00,127,HR-IXPWINDi_r2_v1.2.,2013-03-02 14:04:00,
2013-03-02 09:09:00,34.7,21.4,29.72,NE,49,2.0,6.0,58,0.00,,,0.00,123,HR-IXPWINDi_r2_v1.2.,2013-03-02 14:09:00,
2013-03-02 09:14:00,34.9,22.0,29.72,East,80,1.0,6.0,59,0.00,,,0.00,150,HR-IXPWINDi_r2_v1.2.,2013-03-02 14:14:00,
2013-03-02 09:20:00,35.2,22.3,29.72,North,359,1.0,6.0,59,0.00,,,0.00,146,HR-IXPWINDi_r2_v1.2.,2013-03-02 14:20:00,
2013-03-02 09:25:00,35.3,22.0,29.72,NE,47,2.0,4.0,58,0.00,,,0.00,150,HR-IXPWINDi_r2_v1.2.,2013-03-02 14:25:00,
2013-03-02 09:30:00,35.3,22.0,29.72,NE,45,1.0,4.0,58,0.00,,,0.00,183,HR-IXPWINDi_r2_v1.2.,2013-03-02 14:30:00,
2013-03-02 09:35:00,35.6,22.7,29.72,NW,326,2.0,4.0,59,0.00,,,0.00,190,HR-IXPWINDi_r2_v1.2.,2013-03-02 14:35:00,
2013-03-02 09:40:00,35.8,22.5,29.71,East,93,6.0,6.0,58,0.00,,,0.00,179,HR-IXPWINDi_r2_v1.2.,2013-03-02 14:40:00,
2013-03-02 09:45:00,36.0,22.7,29.71,North,11,5.0,8.0,58,0.00,,,0.00,208,HR-IXPWINDi_r2_v1.2.,2013-03-02 14:45:00,
2013-03-02 09:51:00,36.0,22.7,29.70,NNE,30,2.0,8.0,58,0.00,,,0.00,195,HR-IXPWINDi_r2_v1.2.,2013-03-02 14:51:00,
2013-03-02 09:56:00,35.6,22.3,29.70,NNE,28,3.0,7.0,58,0.00,,,0.00,197,HR-IXPWINDi_r2_v1.2.,2013-03-02 14:56:00,
2013-03-02 10:01:00,35.9,22.1,29.70,NNE,20,0.0,7.0,57,0.00,,,0.00,236,HR-IXPWINDi_r2_v1.2.,2013-03-02 15:01:00,
2013-03-02 10:06:00,35.9,22.6,29.71,SE,138,4.0,10.0,58,0.00,,,0.00,303,HR-IXPWINDi_r2_v1.2.,2013-03-02 15:06:00,
2013-03-02 10:11:00,36.2,22.4,29.71,NE,34,2.0,10.0,57,0.00,,,0.00,311,HR-IXPWINDi_r2_v1.2.,2013-03-02 15:11:00,
2013-03-02 10:17:00,36.3,22.5,29.71,NNE,24,6.0,7.0,57,0.00,,,0.00,185,HR-IXPWINDi_r2_v1.2.,2013-03-02 15:17:00,
2013-03-02 10:22:00,36.5,22.7,29.71,North,8,3.0,7.0,57,0.00,,,0.00,171,HR-IXPWINDi_r2_v1.2.,2013-03-02 15:22:00,
2013-03-02 10:27:00,36.3,22.5,29.71,North,6,2.0,8.0,57,0.00,,,0.00,232,HR-IXPWINDi_r2_v1.2.,2013-03-02 15:27:00,
2013-03-02 10:32:00,36.5,22.7,29.71,NW,325,2.0,8.0,57,0.00,,,0.00,230,HR-IXPWINDi_r2_v1.2.,2013-03-02 15:32:00,
2013-03-02 10:38:00,36.9,23.5,29.70,NW,306,1.0,6.0,58,0.00,,,0.00,199,HR-IXPWINDi_r2_v1.2.,2013-03-02 15:38:00,
2013-03-02 10:43:00,36.9,23.1,29.70,East,80,2.0,10.0,57,0.00,,,0.00,245,HR-IXPWINDi_r2_v1.2.,2013-03-02 15:43:00,
2013-03-02 10:48:00,36.9,22.7,29.70,NNE,25,2.0,10.0,56,0.00,,,0.00,195,HR-IXPWINDi_r2_v1.2.,2013-03-02 15:48:00,
2013-03-02 10:53:00,36.9,23.1,29.70,NNE,28,5.0,7.0,57,0.00,,,0.00,213,HR-IXPWINDi_r2_v1.2.,2013-03-02 15:53:00,
2013-03-02 10:58:00,37.0,23.2,29.70,NNE,14,0.0,6.0,57,0.00,,,0.00,162,HR-IXPWINDi_r2_v1.2.,2013-03-02 15:58:00,
2013-03-02 11:03:00,36.8,23.0,29.70,ENE,76,2.0,7.0,57,0.00,,,0.00,187,HR-IXPWINDi_r2_v1.2.,2013-03-02 16:03:00,
2013-03-02 11:09:00,36.9,23.1,29.70,NE,41,1.0,7.0,57,0.00,,,0.00,162,HR-IXPWINDi_r2_v1.2.,2013-03-02 16:09:00,
2013-03-02 11:14:00,36.8,22.6,29.70,NNE,27,0.0,6.0,56,0.00,,,0.00,181,HR-IXPWINDi_r2_v1.2.,2013-03-02 16:14:00,
2013-03-02 11:19:00,36.6,22.8,29.70,NE,42,2.0,6.0,57,0.00,,,0.00,179,HR-IXPWINDi_r2_v1.2.,2013-03-02 16:19:00,
2013-03-02 11:24:00,36.6,22.8,29.70,North,0,1.0,5.0,57,0.00,,,0.00,157,HR-IXPWINDi_r2_v1.2.,2013-03-02 16:24:00,
2013-03-02 11:29:00,36.8,23.0,29.70,NE,42,1.0,3.0,57,0.00,,,0.00,174,HR-IXPWINDi_r2_v1.2.,2013-03-02 16:29:00,
2013-03-02 11:34:00,37.0,23.2,29.70,NE,44,0.0,3.0,57,0.00,,,0.00,143,HR-IXPWINDi_r2_v1.2.,2013-03-02 16:34:00,
2013-03-02 11:40:00,37.0,22.3,29.70,NE,47,5.0,5.0,55,0.00,,,0.00,137,HR-IXPWINDi_r2_v1.2.,2013-03-02 16:40:00,
2013-03-02 11:45:00,36.6,22.4,29.70,NNE,24,1.0,5.0,56,0.00,,,0.00,153,HR-IXPWINDi_r2_v1.2.,2013-03-02 16:45:00,
2013-03-02 11:50:00,36.6,22.8,29.70,NNE,24,2.0,5.0,57,0.00,,,0.00,278,HR-IXPWINDi_r2_v1.2.,2013-03-02 16:50:00,
2013-03-02 11:55:00,36.9,23.1,29.69,NE,34,1.0,5.0,57,0.00,,,0.00,206,HR-IXPWINDi_r2_v1.2.,2013-03-02 16:55:00,
2013-03-02 12:01:00,37.0,22.8,29.69,ENE,59,1.0,6.0,56,0.00,,,0.00,139,HR-IXPWINDi_r2_v1.2.,2013-03-02 17:01:00,
2013-03-02 12:06:00,37.0,22.8,29.69,North,353,2.0,7.0,56,0.00,,,0.00,125,HR-IXPWINDi_r2_v1.2.,2013-03-02 17:06:00,
2013-03-02 12:11:00,37.2,23.4,29.69,ENE,58,1.0,7.0,57,0.00,,,0.00,169,HR-IXPWINDi_r2_v1.2.,2013-03-02 17:11:00,
2013-03-02 12:16:00,37.3,23.0,29.69,NNW,342,2.0,6.0,56,0.00,,,0.00,157,HR-IXPWINDi_r2_v1.2.,2013-03-02 17:16:00,
2013-03-02 12:22:00,37.2,22.9,29.69,North,0,3.0,6.0,56,0.00,,,0.00,183,HR-IXPWINDi_r2_v1.2.,2013-03-02 17:22:00,
2013-03-02 12:27:00,37.3,23.0,29.69,NE,34,0.0,6.0,56,0.00,,,0.00,144,HR-IXPWINDi_r2_v1.2.,2013-03-02 17:27:00,
2013-03-02 12:32:00,37.0,22.8,29.69,NE,45,0.0,6.0,56,0.00,,,0.00,143,HR-IXPWINDi_r2_v1.2.,2013-03-02 17:32:00,
2013-03-02 12:37:00,37.2,22.9,29.68,NE,47,3.0,6.0,56,0.00,,,0.00,157,HR-IXPWINDi_r2_v1.2.,2013-03-02 17:37:00,
2013-03-02 12:43:00,37.5,23.2,29.68,SE,140,1.0,4.0,56,0.00,,,0.00,116,HR-IXPWINDi_r2_v1.2.,2013-03-02 17:43:00,
2013-03-02 12:48:00,37.6,23.3,29.68,SE,136,1.0,4.0,56,0.00,,,0.00,127,HR-IXPWINDi_r2_v1.2.,2013-03-02 17:48:00,
2013-03-02 12:53:00,37.8,23.1,29.68,East,89,4.0,5.0,55,0.00,,,0.00,148,HR-IXPWINDi_r2_v1.2.,2013-03-02 17:53:00,
2013-03-02 12:58:00,37.2,22.5,29.68,East,95,1.0,6.0,55,0.00,,,0.00,123,HR-IXPWINDi_r2_v1.2.,2013-03-02 17:58:00,
2013-03-02 13:04:00,37.0,22.8,29.68,North,4,0.0,6.0,56,0.00,,,0.00,120,HR-IXPWINDi_r2_v1.2.,2013-03-02 18:04:00,
2013-03-02 13:09:00,37.2,23.4,29.68,North,0,0.0,5.0,57,0.00,,,0.00,104,HR-IXPWINDi_r2_v1.2.,2013-03-02 18:09:00,
2013-03-02 13:14:00,37.3,23.0,29.68,ESE,104,0.0,4.0,56,0.00,,,0.00,118,HR-IXPWINDi_r2_v1.2.,2013-03-02 18:14:00,
2013-03-02 13:19:00,37.3,23.5,29.68,ESE,104,0.0,4.0,57,0.00,,,0.00,114,HR-IXPWINDi_r2_v1.2.,2013-03-02 18:19:00,
2013-03-02 13:25:00,37.3,23.0,29.68,East,97,2.0,3.0,56,0.00,,,0.00,118,HR-IXPWINDi_r2_v1.2.,2013-03-02 18:25:00,
2013-03-02 13:30:00,37.0,22.8,29.68,North,359,0.0,3.0,56,0.00,,,0.00,120,HR-IXPWINDi_r2_v1.2.,2013-03-02 18:30:00,
2013-03-02 13:35:00,37.0,22.8,29.68,North,7,0.0,3.0,56,0.00,,,0.00,134,HR-IXPWINDi_r2_v1.2.,2013-03-02 18:35:00,
2013-03-02 13:40:00,37.2,22.9,29.67,NE,51,0.0,5.0,56,0.00,,,0.00,144,HR-IXPWINDi_r2_v1.2.,2013-03-02 18:40:00,
2013-03-02 13:45:00,37.3,23.0,29.67,North,11,1.0,5.0,56,0.00,,,0.00,139,HR-IXPWINDi_r2_v1.2.,2013-03-02 18:45:00,
2013-03-02 13:51:00,37.5,23.2,29.67,SSE,165,0.0,5.0,56,0.00,,,0.00,109,HR-IXPWINDi_r2_v1.2.,2013-03-02 18:51:00,
2013-03-02 13:56:00,37.5,23.2,29.67,SE,145,1.0,3.0,56,0.00,,,0.00,127,HR-IXPWINDi_r2_v1.2.,2013-03-02 18:56:00,
2013-03-02 14:01:00,37.5,23.2,29.67,NNW,333,3.0,5.0,56,0.00,,,0.00,135,HR-IXPWINDi_r2_v1.2.,2013-03-02 19:01:00,
2013-03-02 14:06:00,37.3,23.5,29.66,North,0,2.0,5.0,57,0.00,,,0.00,100,HR-IXPWINDi_r2_v1.2.,2013-03-02 19:06:00,
2013-03-02 14:11:00,37.2,23.4,29.66,NNE,28,2.0,6.0,57,0.00,,,0.00,111,HR-IXPWINDi_r2_v1.2.,2013-03-02 19:11:00,
2013-03-02 14:17:00,36.9,23.1,29.66,NE,40,2.0,6.0,57,0.00,,,0.00,118,HR-IXPWINDi_r2_v1.2.,2013-03-02 19:17:00,
2013-03-02 14:22:00,37.0,23.2,29.66,NE,48,0.0,6.0,57,0.00,,,0.00,127,HR-IXPWINDi_r2_v1.2.,2013-03-02 19:22:00,
2013-03-02 14:27:00,37.3,23.5,29.66,NE,45,2.0,3.0,57,0.00,,,0.00,95,HR-IXPWINDi_r2_v1.2.,2013-03-02 19:27:00,
2013-03-02 14:32:00,37.3,23.0,29.66,North,350,3.0,3.0,56,0.00,,,0.00,113,HR-IXPWINDi_r2_v1.2.,2013-03-02 19:32:00,
2013-03-02 14:37:00,37.2,23.4,29.66,NNW,339,1.0,5.0,57,0.00,,,0.00,116,HR-IXPWINDi_r2_v1.2.,2013-03-02 19:37:00,
2013-03-02 14:42:00,37.2,23.8,29.66,ESE,110,0.0,5.0,58,0.00,,,0.00,114,HR-IXPWINDi_r2_v1.2.,2013-03-02 19:42:00,
2013-03-02 14:48:00,37.3,23.9,29.66,East,96,1.0,4.0,58,0.00,,,0.00,99,HR-IXPWINDi_r2_v1.2.,2013-03-02 19:48:00,
2013-03-02 14:53:00,37.5,23.6,29.66,East,97,1.0,3.0,57,0.00,,,0.00,97,HR-IXPWINDi_r2_v1.2.,2013-03-02 19:53:00,
2013-03-02 14:58:00,37.8,24.3,29.66,East,97,0.0,3.0,58,0.00,,,0.00,113,HR-IXPWINDi_r2_v1.2.,2013-03-02 19:58:00,
2013-03-02 15:03:00,37.6,23.7,29.66,North,4,0.0,3.0,57,0.00,,,0.00,114,HR-IXPWINDi_r2_v1.2.,2013-03-02 20:03:00,
2013-03-02 15:08:00,37.9,24.0,29.65,South,185,0.0,5.0,57,0.00,,,0.00,111,HR-IXPWINDi_r2_v1.2.,2013-03-02 20:08:00,
2013-03-02 15:14:00,38.2,24.3,29.65,NE,55,0.0,5.0,57,0.00,,,0.00,120,HR-IXPWINDi_r2_v1.2.,2013-03-02 20:14:00,
2013-03-02 15:19:00,38.0,24.1,29.65,North,0,1.0,2.0,57,0.00,,,0.00,102,HR-IXPWINDi_r2_v1.2.,2013-03-02 20:19:00,
2013-03-02 15:24:00,37.6,24.2,29.65,NNE,31,0.0,3.0,58,0.00,,,0.00,84,HR-IXPWINDi_r2_v1.2.,2013-03-02 20:24:00,
2013-03-02 15:29:00,37.3,23.9,29.65,NE,37,1.0,4.0,58,0.00,,,0.00,77,HR-IXPWINDi_r2_v1.2.,2013-03-02 20:29:00,
2013-03-02 15:34:00,37.5,24.1,29.65,North,349,0.0,4.0,58,0.00,,,0.00,84,HR-IXPWINDi_r2_v1.2.,2013-03-02 20:34:00,
2013-03-02 15:39:00,37.6,24.2,29.65,South,176,1.0,4.0,58,0.00,,,0.00,74,HR-IXPWINDi_r2_v1.2.,2013-03-02 20:39:00,
2013-03-02 15:44:00,37.5,24.1,29.65,South,176,1.0,3.0,58,0.00,,,0.00,81,HR-IXPWINDi_r2_v1.2.,2013-03-02 20:44:00,
2013-03-02 15:50:00,37.3,23.9,29.65,South,178,2.0,3.0,58,0.00,,,0.00,70,HR-IXPWINDi_r2_v1.2.,2013-03-02 20:50:00,
2013-03-02 15:55:00,37.3,23.9,29.65,NE,54,1.0,4.0,58,0.00,,,0.00,62,HR-IXPWINDi_r2_v1.2.,2013-03-02 20:55:00,
2013-03-02 16:00:00,37.2,24.2,29.65,NE,55,1.0,4.0,59,0.00,,,0.00,62,HR-IXPWINDi_r2_v1.2.,2013-03-02 21:00:00,
2013-03-02 16:05:00,37.0,24.0,29.65,NE,55,0.0,3.0,59,0.00,,,0.00,60,HR-IXPWINDi_r2_v1.2.,2013-03-02 21:05:00,
2013-03-02 16:10:00,37.2,24.6,29.65,NE,55,0.0,3.0,60,0.00,,,0.00,65,HR-IXPWINDi_r2_v1.2.,2013-03-02 21:10:00,
2013-03-02 16:15:00,37.2,24.6,29.65,NE,40,1.0,3.0,60,0.00,,,0.00,48,HR-IXPWINDi_r2_v1.2.,2013-03-02 21:15:00,
2013-03-02 16:21:00,37.0,24.4,29.65,NE,40,0.0,3.0,60,0.00,,,0.00,35,HR-IXPWINDi_r2_v1.2.,2013-03-02 21:21:00,
2013-03-02 16:26:00,37.0,24.8,29.65,NE,40,0.0,3.0,61,0.00,,,0.00,44,HR-IXPWINDi_r2_v1.2.,2013-03-02 21:26:00,
2013-03-02 16:31:00,37.3,25.5,29.65,NE,47,0.0,3.0,62,0.00,,,0.00,42,HR-IXPWINDi_r2_v1.2.,2013-03-02 21:31:00,
2013-03-02 16:36:00,37.2,24.6,29.65,NNE,25,1.0,6.0,60,0.00,,,0.00,39,HR-IXPWINDi_r2_v1.2.,2013-03-02 21:36:00,
2013-03-02 16:42:00,36.9,24.3,29.65,NNE,24,1.0,6.0,60,0.00,,,0.00,35,HR-IXPWINDi_r2_v1.2.,2013-03-02 21:42:00,
2013-03-02 16:47:00,36.8,24.6,29.65,NE,51,1.0,3.0,61,0.00,,,0.00,25,HR-IXPWINDi_r2_v1.2.,2013-03-02 21:47:00,
2013-03-02 16:52:00,36.6,24.8,29.66,NE,51,1.0,3.0,62,0.00,,,0.00,21,HR-IXPWINDi_r2_v1.2.,2013-03-02 21:52:00,
2013-03-02 16:57:00,36.5,24.7,29.66,NE,49,0.0,2.0,62,0.00,,,0.00,12,HR-IXPWINDi_r2_v1.2.,2013-03-02 21:57:00,
2013-03-02 17:02:00,36.3,24.9,29.66,NNE,30,0.0,2.0,63,0.00,,,0.00,7,HR-IXPWINDi_r2_v1.2.,2013-03-02 22:02:00,
2013-03-02 17:08:00,36.2,24.8,29.66,NNE,30,0.0,2.0,63,0.00,,,0.00,0,HR-IXPWINDi_r2_v1.2.,2013-03-02 22:08:00,
2013-03-02 17:13:00,36.0,24.6,29.66,NNE,30,0.0,2.0,63,0.00,,,0.00,0,HR-IXPWINDi_r2_v1.2.,2013-03-02 22:13:00,
2013-03-02 17:18:00,36.0,25.0,29.66,NNE,30,2.0,2.0,64,0.00,,,0.00,0,HR-IXPWINDi_r2_v1.2.,2013-03-02 22:18:00,
2013-03-02 17:23:00,36.0,25.0,29.66,NNE,30,0.0,2.0,64,0.00,,,0.00,5,HR-IXPWINDi_r2_v1.2.,2013-03-02 22:23:00,
2013-03-02 17:28:00,36.0,25.0,29.66,NNE,30,0.0,2.0,64,0.00,,,0.00,0,HR-IXPWINDi_r2_v1.2.,2013-03-02 22:28:00,
2013-03-02 17:33:00,36.0,25.0,29.66,NNE,30,0.0,2.0,64,0.00,,,0.00,0,HR-IXPWINDi_r2_v1.2.,2013-03-02 22:33:00,
2013-03-02 17:39:00,36.0,25.4,29.67,NNE,28,1.0,2.0,65,0.00,,,0.00,0,HR-IXPWINDi_r2_v1.2.,2013-03-02 22:39:00,
2013-03-02 17:44:00,35.9,24.9,29.67,NNE,28,0.0,3.0,64,0.00,,,0.00,0,HR-IXPWINDi_r2_v1.2.,2013-03-02 22:44:00,
2013-03-02 17:49:00,35.9,24.9,29.67,NNE,28,1.0,3.0,64,0.00,,,0.00,0,HR-IXPWINDi_r2_v1.2.,2013-03-02 22:49:00,
2013-03-02 17:54:00,35.8,24.8,29.67,North,0,2.0,2.0,64,0.00,,,0.00,0,HR-IXPWINDi_r2_v1.2.,2013-03-02 22:54:00,
2013-03-02 18:00:00,35.8,25.2,29.67,North,357,1.0,2.0,65,0.00,,,0.00,0,HR-IXPWINDi_r2_v1.2.,2013-03-02 23:00:00,
2013-03-02 18:05:00,35.5,24.9,29.67,NNE,21,2.0,4.0,65,0.00,,,0.00,0,HR-IXPWINDi_r2_v1.2.,2013-03-02 23:05:00,
2013-03-02 18:10:00,35.2,24.6,29.68,NNE,21,0.0,4.0,65,0.00,,,0.00,0,HR-IXPWINDi_r2_v1.2.,2013-03-02 23:10:00,
2013-03-02 18:15:00,35.2,25.0,29.68,NNE,21,0.0,2.0,66,0.00,,,0.00,0,HR-IXPWINDi_r2_v1.2.,2013-03-02 23:15:00,
2013-03-02 18:20:00,35.2,25.0,29.68,North,0,2.0,3.0,66,0.00,,,0.00,0,HR-IXPWINDi_r2_v1.2.,2013-03-02 23:20:00,
2013-03-02 18:25:00,35.0,24.4,29.68,North,359,0.0,3.0,65,0.00,,,0.00,0,HR-IXPWINDi_r2_v1.2.,2013-03-02 23:25:00,
2013-03-02 18:30:00,35.0,24.4,29.68,NE,38,0.0,5.0,65,0.00,,,0.00,0,HR-IXPWINDi_r2_v1.2.,2013-03-02 23:30:00,
2013-03-02 18:35:00,35.0,24.4,29.68,NE,38,0.0,5.0,65,0.00,,,0.00,0,HR-IXPWINDi_r2_v1.2.,2013-03-02 23:35:00,
2013-03-02 18:41:00,34.9,24.3,29.68,NE,38,1.0,2.0,65,0.00,,,0.00,0,HR-IXPWINDi_r2_v1.2.,2013-03-02 23:41:00,
2013-03-02 18:46:00,34.7,24.1,29.68,NE,38,0.0,2.0,65,0.00,,,0.00,0,HR-IXPWINDi_r2_v1.2.,2013-03-02 23:46:00,
2013-03-02 18:51:00,34.7,24.1,29.69,North,0,1.0,3.0,65,0.00,,,0.00,0,HR-IXPWINDi_r2_v1.2.,2013-03-02 23:51:00,
2013-03-02 18:56:00,34.7,24.1,29.69,North,359,0.0,3.0,65,0.00,,,0.00,0,HR-IXPWINDi_r2_v1.2.,2013-03-02 23:56:00,
2013-03-02 19:01:00,34.6,24.0,29.69,North,359,0.0,3.0,65,0.00,,,0.00,0,HR-IXPWINDi_r2_v1.2.,2013-03-03 00:01:00,
2013-03-02 19:06:00,34.6,24.0,29.69,North,359,0.0,3.0,65,0.00,,,0.00,0,HR-IXPWINDi_r2_v1.2.,2013-03-03 00:06:00,
2013-03-02 19:12:00,34.4,23.8,29.69,North,0,0.0,2.0,65,0.00,,,0.00,0,HR-IXPWINDi_r2_v1.2.,2013-03-03 00:12:00,
2013-03-02 19:17:00,34.4,23.8,29.69,North,0,0.0,2.0,65,0.00,,,0.00,0,HR-IXPWINDi_r2_v1.2.,2013-03-03 00:17:00,
2013-03-02 19:22:00,34.3,23.8,29.69,North,359,0.0,2.0,65,0.00,,,0.00,0,HR-IXPWINDi_r2_v1.2.,2013-03-03 00:22:00,
2013-03-02 19:27:00,34.1,23.6,29.69,North,359,1.0,2.0,65,0.00,,,0.00,0,HR-IXPWINDi_r2_v1.2.,2013-03-03 00:27:00,
2013-03-02 19:32:00,34.1,23.9,29.69,North,0,0.0,2.0,66,0.00,,,0.00,0,HR-IXPWINDi_r2_v1.2.,2013-03-03 00:32:00,
2013-03-02 19:37:00,34.0,23.8,29.69,NNE,28,0.0,2.0,66,0.00,,,0.00,0,HR-IXPWINDi_r2_v1.2.,2013-03-03 00:37:00,
2013-03-02 19:42:00,34.0,23.8,29.69,NNE,28,0.0,2.0,66,0.00,,,0.00,0,HR-IXPWINDi_r2_v1.2.,2013-03-03 00:42:00,
2013-03-02 19:48:00,33.8,24.0,29.69,NNE,30,0.0,2.0,67,0.00,,,0.00,0,HR-IXPWINDi_r2_v1.2.,2013-03-03 00:48:00,
2013-03-02 19:53:00,33.7,23.9,29.69,NE,45,0.0,4.0,67,0.00,,,0.00,0,HR-IXPWINDi_r2_v1.2.,2013-03-03 00:53:00,
2013-03-02 19:58:00,33.7,23.9,29.69,NE,41,0.0,4.0,67,0.00,,,0.00,0,HR-IXPWINDi_r2_v1.2.,2013-03-03 00:58:00,
2013-03-02 20:03:00,33.5,24.1,29.69,NE,41,0.0,2.0,68,0.00,,,0.00,0,HR-IXPWINDi_r2_v1.2.,2013-03-03 01:03:00,
2013-03-02 20:08:00,33.4,24.3,29.69,NE,41,0.0,2.0,69,0.00,,,0.00,0,HR-IXPWINDi_r2_v1.2.,2013-03-03 01:08:00,
2013-03-02 20:14:00,33.4,24.3,29.69,NE,41,1.0,2.0,69,0.00,,,0.00,0,HR-IXPWINDi_r2_v1.2.,2013-03-03 01:14:00,
2013-03-02 20:19:00,33.2,24.1,29.69,NE,41,0.0,2.0,69,0.00,,,0.00,0,HR-IXPWINDi_r2_v1.2.,2013-03-03 01:19:00,
2013-03-02 20:24:00,33.2,24.1,29.70,NE,40,0.0,2.0,69,0.00,,,0.00,0,HR-IXPWINDi_r2_v1.2.,2013-03-03 01:24:00,
2013-03-02 20:29:00,33.1,24.0,29.70,NE,40,0.0,0.0,69,0.00,,,0.00,0,HR-IXPWINDi_r2_v1.2.,2013-03-03 01:29:00,
2013-03-02 20:34:00,33.1,24.4,29.70,NE,40,0.0,0.0,70,0.00,,,0.00,0,HR-IXPWINDi_r2_v1.2.,2013-03-03 01:34:00,
2013-03-02 20:39:00,32.9,24.2,29.70,NE,40,0.0,2.0,70,0.00,,,0.00,0,HR-IXPWINDi_r2_v1.2.,2013-03-03 01:39:00,
2013-03-02 20:45:00,32.8,24.4,29.70,NE,40,0.0,2.0,71,0.00,,,0.00,0,HR-IXPWINDi_r2_v1.2.,2013-03-03 01:45:00,
2013-03-02 20:50:00,32.7,24.7,29.70,NE,40,0.0,2.0,72,0.00,,,0.00,0,HR-IXPWINDi_r2_v1.2.,2013-03-03 01:50:00,
2013-03-02 20:55:00,32.5,25.1,29.70,NE,40,0.0,2.0,74,0.00,,,0.00,0,HR-IXPWINDi_r2_v1.2.,2013-03-03 01:55:00,
2013-03-02 21:00:00,32.2,25.2,29.70,NE,40,0.0,2.0,75,0.00,,,0.00,0,HR-IXPWINDi_r2_v1.2.,2013-03-03 02:00:00,
2013-03-02 21:06:00,32.1,25.4,29.71,NE,40,0.0,2.0,76,0.00,,,0.00,0,HR-IXPWINDi_r2_v1.2.,2013-03-03 02:06:00,
2013-03-02 21:11:00,31.8,25.4,29.71,NE,40,0.0,2.0,77,0.00,,,0.00,0,HR-IXPWINDi_r2_v1.2.,2013-03-03 02:11:00,
2013-03-02 21:16:00,31.5,25.7,29.71,NE,40,0.0,2.0,79,0.00,,,0.00,0,HR-IXPWINDi_r2_v1.2.,2013-03-03 02:16:00,
2013-03-02 21:21:00,31.3,25.8,29.71,NE,40,0.0,2.0,80,0.00,,,0.00,0,HR-IXPWINDi_r2_v1.2.,2013-03-03 02:21:00,
2013-03-02 21:27:00,31.2,26.3,29.71,NE,40,0.0,1.0,82,0.00,,,0.00,0,HR-IXPWINDi_r2_v1.2.,2013-03-03 02:27:00,
2013-03-02 21:32:00,31.0,26.1,29.71,NE,40,0.0,1.0,82,0.00,,,0.00,0,HR-IXPWINDi_r2_v1.2.,2013-03-03 02:32:00,
2013-03-02 21:37:00,30.7,26.1,29.71,NE,40,0.0,0.0,83,0.00,,,0.00,0,HR-IXPWINDi_r2_v1.2.,2013-03-03 02:37:00,
2013-03-02 21:42:00,30.6,26.3,29.71,NE,40,0.0,1.0,84,0.00,,,0.00,0,HR-IXPWINDi_r2_v1.2.,2013-03-03 02:42:00,
2013-03-02 21:47:00,30.4,26.1,29.71,NE,35,0.0,2.0,84,0.00,,,0.00,0,HR-IXPWINDi_r2_v1.2.,2013-03-03 02:47:00,
2013-03-02 21:52:00,30.4,26.7,29.70,NE,35,0.0,2.0,86,0.00,,,0.00,0,HR-IXPWINDi_r2_v1.2.,2013-03-03 02:52:00,
2013-03-02 21:58:00,30.4,26.7,29.70,NE,35,0.0,1.0,86,0.00,,,0.00,0,HR-IXPWINDi_r2_v1.2.,2013-03-03 02:58:00,
2013-03-02 22:03:00,30.3,26.6,29.70,NE,35,0.0,1.0,86,0.00,,,0.00,0,HR-IXPWINDi_r2_v1.2.,2013-03-03 03:03:00,
2013-03-02 22:08:00,30.1,26.4,29.70,NE,35,0.0,1.0,86,0.00,,,0.00,0,HR-IXPWINDi_r2_v1.2.,2013-03-03 03:08:00,
2013-03-02 22:13:00,30.1,26.4,29.70,NE,35,0.0,0.0,86,0.00,,,0.00,0,HR-IXPWINDi_r2_v1.2.,2013-03-03 03:13:00,
2013-03-02 22:18:00,30.0,26.3,29.70,NE,35,0.0,1.0,86,0.00,,,0.00,0,HR-IXPWINDi_r2_v1.2.,2013-03-03 03:18:00,
2013-03-02 22:24:00,30.0,26.3,29.70,NE,35,0.0,1.0,86,0.00,,,0.00,0,HR-IXPWINDi_r2_v1.2.,2013-03-03 03:24:00,
2013-03-02 22:29:00,30.0,26.3,29.70,NE,35,0.0,1.0,86,0.00,,,0.00,0,HR-IXPWINDi_r2_v1.2.,2013-03-03 03:29:00,
2013-03-02 22:34:00,30.0,26.6,29.70,NNE,32,0.0,1.0,87,0.00,,,0.00,0,HR-IXPWINDi_r2_v1.2.,2013-03-03 03:34:00,
2013-03-02 22:39:00,30.0,26.6,29.70,NNE,32,0.0,1.0,87,0.00,,,0.00,0,HR-IXPWINDi_r2_v1.2.,2013-03-03 03:39:00,
2013-03-02 22:44:00,30.0,26.6,29.70,NNE,32,0.0,1.0,87,0.00,,,0.00,0,HR-IXPWINDi_r2_v1.2.,2013-03-03 03:44:00,
2013-03-02 22:49:00,30.0,26.6,29.70,NNE,32,0.0,1.0,87,0.00,,,0.00,0,HR-IXPWINDi_r2_v1.2.,2013-03-03 03:49:00,
2013-03-02 22:54:00,30.0,26.3,29.69,NNE,32,0.0,1.0,86,0.00,,,0.00,0,HR-IXPWINDi_r2_v1.2.,2013-03-03 03:54:00,
2013-03-02 23:00:00,30.0,26.3,29.69,North,6,0.0,2.0,86,0.00,,,0.00,0,HR-IXPWINDi_r2_v1.2.,2013-03-03 04:00:00,
2013-03-02 23:05:00,29.8,26.1,29.69,North,6,0.0,2.0,86,0.00,,,0.00,0,HR-IXPWINDi_r2_v1.2.,2013-03-03 04:05:00,
2013-03-02 23:10:00,29.8,25.8,29.69,NNW,344,0.0,3.0,85,0.00,,,0.00,0,HR-IXPWINDi_r2_v1.2.,2013-03-03 04:10:00,
2013-03-02 23:15:00,29.7,25.4,29.69,North,4,1.0,6.0,84,0.00,,,0.00,0,HR-IXPWINDi_r2_v1.2.,2013-03-03 04:15:00,
2013-03-02 23:21:00,29.7,25.2,29.69,North,3,0.0,6.0,83,0.00,,,0.00,0,HR-IXPWINDi_r2_v1.2.,2013-03-03 04:21:00,
2013-03-02 23:26:00,29.7,25.2,29.69,NE,52,2.0,3.0,83,0.00,,,0.00,0,HR-IXPWINDi_r2_v1.2.,2013-03-03 04:26:00,
2013-03-02 23:31:00,29.7,25.2,29.69,NE,51,2.0,3.0,83,0.00,,,0.00,0,HR-IXPWINDi_r2_v1.2.,2013-03-03 04:31:00,
2013-03-02 23:36:00,29.7,25.2,29.69,NE,51,0.0,3.0,83,0.00,,,0.00,0,HR-IXPWINDi_r2_v1.2.,2013-03-03 04:36:00,
2013-03-02 23:41:00,29.7,25.2,29.69,NE,51,0.0,2.0,83,0.00,,,0.00,0,HR-IXPWINDi_r2_v1.2.,2013-03-03 04:41:00,
2013-03-02 23:47:00,29.7,24.9,29.69,NE,45,1.0,2.0,82,0.00,,,0.00,0,HR-IXPWINDi_r2_v1.2.,2013-03-03 04:47:00,
2013-03-02 23:52:00,29.7,24.9,29.69,NE,48,0.0,3.0,82,0.00,,,0.00,0,HR-IXPWINDi_r2_v1.2.,2013-03-03 04:52:00,
2013-03-02 23:57:00,29.5,24.7,29.69,NE,48,1.0,3.0,82,0.00,,,0.00,0,HR-IXPWINDi_r2_v1.2.,2013-03-03 04:57:00,